Location: Observatory Park - Geauga Park District
(41.5832°N, 81.0716°W)
Time: 07:10:03
(UTC-04:00)

N. Korean satellite - Visible Passes

Search period start: 28 September 2021 00:00
Search period end: 08 October 2021 00:00
Orbit: 449 x 498 km, 97.3° (Epoch: 27 September)

Date Brightness Start Highest point End Pass type
(mag) Time Alt. Az. Time Alt. Az. Time Alt. Az.
28 Sep 9.2 06:00:21 10° NE 06:03:15 23° E 06:06:10 10° SSE visible
29 Sep 10.2 05:34:26 10° ENE 05:35:14 11° E 05:36:00 10° ESE visible
30 Sep 6.9 06:37:19 10° NNE 06:40:53 73° E 06:44:30 10° S visible
01 Oct 8.7 06:09:46 10° NNE 06:12:59 30° E 06:16:13 10° SSE visible
02 Oct 9.9 05:42:59 10° ENE 05:44:58 14° E 05:46:58 10° SE visible
03 Oct 6.5 06:46:53 10° N 06:50:31 83° W 06:54:09 10° SSW visible
04 Oct 8.1 06:19:10 10° NNE 06:22:37 40° E 06:26:04 10° S visible
05 Oct 9.6 05:51:59 10° NE 05:54:35 18° E 05:57:12 10° SE visible
06 Oct 6.6 06:56:25 10° N 07:00:01 61° WNW 07:03:37 10° SSW visible
07 Oct 7.4 06:28:32 10° NNE 06:32:06 55° E 06:35:41 10° S visible
